Location: Unspecified
(33.6429°N, 0.0000°E)
Time: 22:14:43
(UTC+00:00)

Explorer 7 - Visible Passes

Search period start: 04 April 2026 00:00
Search period end: 14 April 2026 00:00
Orbit: 429 x 539 km, 50.2° (Epoch: 29 March)

Date Brightness Start Highest point End Pass type
(mag) Time Alt. Az. Time Alt. Az. Time Alt. Az.
4 Apr 8.9 03:24:55 19° E 03:24:55 19° E 03:26:07 10° ESE visible
4 Apr 7.9 04:59:17 14° W 05:00:53 19° SW 05:03:22 10° S visible
4 Apr 6.8 20:13:48 10° SW 20:17:34 72° W 20:17:34 72° W visible
5 Apr 8.1 04:35:00 18° SSW 04:35:00 18° SSW 04:36:32 10° S visible
5 Apr 6.7 19:46:43 10° SW 19:50:47 84° NW 19:53:13 23° NE visible
5 Apr 10.0 21:27:08 10° WNW 21:27:35 12° WNW 21:27:35 12° WNW visible
6 Apr 6.7 19:19:35 10° SW 19:23:40 89° SE 19:27:41 10° NE visible
6 Apr 9.4 20:59:50 10° WNW 21:02:28 16° NNW 21:02:51 16° NNW visible
7 Apr 6.7 18:52:27 10° SW 18:56:32 83° SE 19:00:33 10° NE visible
7 Apr 9.4 20:32:32 10° WNW 20:35:17 17° NNW 20:37:45 11° NNE visible
8 Apr 9.4 20:05:13 10° WNW 20:08:05 18° NNW 20:10:56 10° NNE visible
9 Apr 9.3 19:37:52 10° WNW 19:40:52 19° NNW 19:43:48 10° NNE visible
10 Apr 9.2 19:10:30 10° WNW 19:13:36 20° NNW 19:16:40 10° NNE visible
